Starlink 6270

operational
NORAD ID: 56421 Int'l Des: 2023-061 Owner: SPXS Country: US Constellation: starlink
LEOCIRCULAR

关于 Starlink 6270

正在加载描述...

实时位置

正在加载3D地球...

即将过境

高度历史

Altitude vs Time

uPlot chart will show altitude changes over time

两行轨道根数

1 56421U 23061AZ 25354.07601470 -.00000004 00000-0 14742-4 0 9991
2 56421 43.0036 244.4893 0001119 273.9500 86.1214 15.02533759145077
Epoch: Dec 20, 2025 • Age: 18 hours

当前状态

高度 563.0 km
速度 7.59 km/s
星下点 43.03°N, 61.06°W
发射日期 May 4, 2023
运行时间 2.6 years
类型 internet

技术详情

分类 Payload
质量 305.00 kg
干质量 290.00 kg
总质量 305.00 kg
长度 0.20 m
直径 2.80 m
跨度 9.00 m
形状 Box + pan
制造商 SPXS
平台类型 Starlink
阶段状态 In Orbit
所有者/国家 SPXS/US

大型星座

Loading constellations...